Home > Time Zones > World Clock > Weather > Sweden > Lund > Past weeks

Flag for Sweden Weather past 2 weeks in Lund, Sweden

Now
39 °F

Light rain. Fog.


Feels Like: 29 °F
Forecast: 36 / 41 °F
Wind: 20 mph from Northwest

Location: Malmo / Sturup

Current Time: Mar 30, 2015 at 9:21:50 AM

Latest Report: Mar 30, 2015 at 8:50 AM


Visibility: 5 mi

Pressure: 28.91 "Hg

Humidity: 93%

Dew point: 37 °F

Location of LundLocation

Historic Weather in Lund — Graph

°F

Lund temperature yesterday

Maximum temperature yesterday: 48 °F (at 12:20 PM)
Minimum temperature yesterday: 39 °F (at 12:50 AM)
Average temperature yesterday: 44 °F

Past Weeks' High & Low Weather Summary

 TemperatureHumidityPressure
High52 °F (Mar 17, 2:20 PM)100% (Mar 20, 6:20 PM)30.66 "Hg (Mar 20, 6:20 PM)
Low19 °F (Mar 22, 6:20 AM)28% (Mar 19, 3:50 PM)28.82 "Hg (Mar 30, 3:20 AM)
Average40 °F79%30.06 "Hg
* Reported Mar 15 7:20 AM — Mar 30 8:20 AM, Lund, Weather by CustomWeather, © 2015

Note: Actual official high and low records may vary slightly from our data, if they occured in-between our weather recording intervals... More about our weather records

Advertising

Lund weather history for previous 24 hours

 ConditionsComfort  
Time TempWeatherWind HumidityBarometerVisibility
8:20 AM
Mon, Mar 30
39 °FLight rain. Fog.20 mph100%28.88 "Hg5 mi
7:50 AM39 °FLight rain. Fog.15 mph100%28.88 "Hg5 mi
7:20 AM39 °FLight rain. Fog.17 mph93%28.88 "Hg5 mi
6:50 AM37 °FLight rain. Mostly cloudy.14 mph93%28.88 "Hg5 mi
6:20 AM36 °FRain. Low clouds.18 mph100%28.88 "Hg5 mi
5:50 AM37 °FRain. Mostly cloudy.23 mph93%28.85 "Hg5 mi
5:20 AM39 °FRain. Partly cloudy.23 mph93%28.85 "Hg4 mi
4:50 AM41 °FRain. Passing clouds.18 mph100%28.82 "Hg5 mi
4:20 AM41 °FRain. Mostly cloudy.12 mph100%28.82 "Hg4 mi
3:50 AM41 °FRain. Mostly cloudy.6 mph100%28.82 "Hg4 mi
3:20 AM41 °FRain. Passing clouds.6 mph100%28.82 "Hg5 mi
2:50 AM41 °FRain. Partly cloudy.8 mph100%28.85 "Hg5 mi
2:20 AM41 °FRain. Passing clouds.10 mph100%28.85 "Hg5 mi
1:50 AM41 °FRain. Low clouds.9 mph100%28.88 "Hg4 mi
1:20 AM41 °FLight rain. Low clouds.9 mph100%28.91 "Hg4 mi
12:50 AM41 °FLight rain. Passing clouds.8 mph100%28.94 "Hg4 mi
12:20 AM43 °FLight rain. Low clouds.9 mph93%28.97 "Hg4 mi
11:50 PM
Sun, Mar 29
43 °FPassing clouds.13 mph93%28.97 "HgN/A
11:20 PM41 °FPassing clouds.9 mph100%29.00 "HgN/A
10:50 PM41 °FPassing clouds.10 mph100%29.03 "HgN/A
10:20 PM43 °FPassing clouds.12 mph93%29.06 "HgN/A
9:50 PM43 °FPassing clouds.12 mph93%29.09 "HgN/A
9:20 PM43 °FClear.12 mph93%29.09 "Hg10 mi
8:50 PM41 °FPassing clouds.9 mph93%29.12 "HgN/A
8:20 PM43 °FPassing clouds.10 mph87%29.12 "HgN/A
7:50 PM43 °FPassing clouds.12 mph93%29.15 "HgN/A
7:20 PM43 °FPassing clouds.12 mph93%29.15 "HgN/A
6:50 PM45 °FPassing clouds.12 mph87%29.18 "HgN/A
6:20 PM46 °FScattered clouds.13 mph82%29.18 "HgN/A
5:50 PM46 °FScattered clouds.15 mph87%29.21 "HgN/A
5:20 PM46 °FPartly sunny.17 mph87%29.21 "HgN/A
4:50 PM46 °FBroken clouds.14 mph93%29.21 "HgN/A
4:20 PM45 °FFog.14 mph100%29.24 "Hg4 mi
3:50 PM46 °FFog.14 mph87%29.24 "Hg6 mi
3:20 PM46 °FBroken clouds.16 mph87%29.27 "HgN/A
2:50 PM46 °FBroken clouds.17 mph87%29.27 "HgN/A
2:20 PM46 °FMostly cloudy.17 mph93%29.30 "HgN/A
1:50 PM46 °FPartly sunny.17 mph93%29.30 "HgN/A
1:20 PM46 °FPartly sunny.16 mph87%29.30 "HgN/A
12:50 PM48 °FPartly sunny.15 mph82%29.30 "HgN/A
12:20 PM48 °FPartly sunny.14 mph82%29.33 "HgN/A
11:50 AM46 °FFog.18 mph93%29.33 "Hg6 mi
11:20 AM46 °FFog.17 mph93%29.33 "Hg6 mi
10:50 AM46 °FFog.15 mph93%29.33 "Hg4 mi
10:20 AM45 °FFog.18 mph100%29.33 "Hg4 mi
9:50 AM45 °FFog.18 mph100%29.33 "Hg2 mi
9:20 AM45 °FLight rain. Low clouds.20 mph100%29.33 "Hg2 mi
Weather by CustomWeather, © 2015

See weather overviewHow to use our weather pages